MDT,Max TemperatureF,Mean TemperatureF,Min TemperatureF,Max Dew PointF,MeanDew PointF,Min DewpointF,Max Humidity, Mean Humidity, Min Humidity, Max Sea Level PressureIn, Mean Sea Level PressureIn, Min Sea Level PressureIn, Max VisibilityMiles, Mean VisibilityMiles, Min VisibilityMiles, Max Wind SpeedMPH, Mean Wind SpeedMPH, Max Gust SpeedMPH,PrecipitationIn, CloudCover, Events, WindDirDegrees
2013-3-1,39,34,28,28,23,18,78,69,59,30.56,30.50,30.41,10,10,10,17,12,,0.00,5,,241
2013-3-2,45,35,24,26,22,20,88,67,45,30.53,30.34,30.10,10,10,10,8,6,,0.00,0,,227
2013-3-3,35,32,30,32,29,18,96,76,56,30.05,29.91,29.83,10,7,0,20,14,34,0.00,6,Fog-Snow,231
2013-3-4,32,25,18,24,9,0,85,59,33,30.32,30.09,29.85,10,10,10,18,9,,0.00,2,,324
2013-3-5,39,24,9,18,8,0,73,51,29,30.35,30.21,30.02,10,10,10,13,6,17,0.00,0,,111
2013-3-6,45,34,23,31,24,12,60,48,36,30.00,29.88,29.76,10,6,1,25,12,32,0.00,5,Snow,238
2013-3-7,34,29,23,28,26,20,92,81,69,30.01,29.95,29.90,10,4,0,16,9,,0.05,7,Fog-Snow,8
2013-3-8,37,30,24,32,27,24,92,81,70,29.92,29.82,29.69,10,4,0,7,4,,0.00,7,Fog-Snow,42
2013-3-9,34,28,23,27,23,14,100,81,61,30.25,29.87,29.69,10,7,0,18,12,25,0.00,6,Fog-Snow,348
2013-3-10,41,28,16,20,15,10,80,59,37,30.39,30.31,30.21,10,10,10,16,7,,0.00,0,,247
2013-3-11,38,31,24,26,21,15,75,64,52,30.23,30.18,30.13,10,10,10,30,17,37,0.00,3,,244
2013-3-12,43,37,31,29,27,25,82,70,57,30.31,30.24,30.15,10,10,10,17,10,21,0.00,5,,234
2013-3-13,51,40,29,29,26,23,78,59,39,30.38,30.31,30.27,10,10,10,21,9,23,0.00,0,,210
2013-3-14,58,47,35,26,23,19,52,39,26,30.29,30.22,30.11,10,10,10,17,8,21,0.00,0,,213
2013-3-15,56,47,38,28,23,17,54,37,20,30.09,30.00,29.94,10,10,10,21,12,25,0.00,2,,251
2013-3-16,48,39,30,23,19,14,72,49,26,29.93,29.88,29.74,10,10,10,24,11,32,0.00,0,,251
2013-3-17,36,29,21,30,21,9,100,72,43,30.00,29.83,29.69,10,7,0,41,20,52,0.01,5,Fog-Snow,261
2013-3-18,37,29,21,19,15,10,84,60,35,30.09,30.03,29.96,10,10,10,31,15,39,0.00,4,,248
2013-3-19,44,32,20,12,0,-11,60,36,11,30.22,30.18,30.10,10,10,10,16,6,18,0.00,0,,249
2013-3-20,43,36,29,36,27,3,96,63,30,30.14,29.95,29.80,10,8,1,31,13,37,0.01,6,Rain-Snow,214
2013-3-21,33,26,19,32,24,9,96,73,49,30.01,29.79,29.63,10,5,0,32,16,40,0.10,6,Fog-Snow-Thunderstorm,255
2013-3-22,24,18,12,18,13,7,92,73,54,30.02,29.86,29.78,10,4,0,23,10,31,T,7,Fog-Snow,258
2013-3-23,24,16,10,14,11,7,92,80,67,30.26,30.03,29.87,10,4,0,17,9,21,0.05,8,Fog-Snow,327
2013-3-24,25,16,6,14,9,2,92,69,46,30.29,30.16,30.06,10,6,0,10,4,,0.06,5,Snow,171
2013-3-25,37,22,7,20,8,-4,69,54,39,30.30,30.22,30.08,10,10,10,10,5,17,0.00,2,,187
2013-3-26,48,37,26,25,20,18,75,54,33,30.05,29.94,29.85,10,10,10,17,7,30,0.00,4,,200
2013-3-27,52,40,27,26,23,19,85,58,30,30.02,29.97,29.92,10,10,10,14,8,36,0.00,1,,204
2013-3-28,56,43,30,33,27,22,75,54,32,30.06,30.02,29.96,10,10,10,7,5,31,0.01,2,Rain,61
2013-3-29,56,44,32,31,26,22,75,52,28,30.16,30.11,30.02,10,10,10,21,12,31,0.00,1,,240
2013-3-30,56,44,32,29,24,20,69,48,26,30.17,30.12,30.10,10,10,10,21,11,33,0.00,1,,280
2013-3-31,59,43,27,26,16,1,69,40,10,30.11,30.02,29.91,10,10,10,16,7,28,0.00,0,,241